SERT 2

Last updated on Sat Apr 13 2024 01:02:09 GMT+0100 (British Summer Time)

1 04327U 70009A 24103.52017201 .00000039 00000+0 10930-3 0 9997 2 04327 99.1812 77.1028 0005430 136.5292 332.9247 13.58607267685355
UTC large
Height (km)
Speed (km/s)
/
Latitude / Longitude
Inclination (degrees)
Orbital Period (minutes)
Azimuth
Elevation
Range (km)
Doppler Factor

Next 0 passes for location: London (51.5072 / 0.1276)

Sorry there are no passes over London.